Caslav, Czech Republic

9:26 AM CEST on October 22, 2017 (GMT +0200)
Caslav

Weather History for LKCV - December, 2012

Change the Weather History Date:

Sunday, December 2, 2012

  Actual Average Record
Temperature  
Mean Temperature 28 °F -  
Max Temperature 32 °F - - ()
Min Temperature 24 °F - - ()
Degree Days  
Heating Degree Days 37    
Moisture  
Dew Point 28 °F    
Average Humidity 92    
Maximum Humidity 100    
Minimum Humidity 87    
Precipitation  
Precipitation 0.00 in - - ()
Sea Level Pressure  
Sea Level Pressure 29.86 in    
Wind  
Wind Speed 2 mph ()    
Max Wind Speed 7 mph    
Max Gust Speed -    
Visibility 6.1 miles    
Events Snow    
T = Trace of Precipitation, MM = Missing Value Source: Averaged Metar Reports

Daily Weather History Graph

Daily Weather History Graph

Search for Another Location

Airport or City:

Trip Planner

Search our weather history database for the weather conditions in past years. The results will help you decide how hot, cold, wet, or windy it might be!

Date:

Astronomy

Dec. 02, 2012 Rise Set
Actual Time 7:36 AM CET 3:59 PM CET
Civil Twilight 6:59 AM CET 4:36 PM CET
Nautical Twilight 6:18 AM CET 5:17 PM CET
Astronomical Twilight 5:39 AM CET 5:56 PM CET
Moon 7:38 PM CET (12/2) 10:08 AM CET (12/2)
Length of Visible Light 9h 37m
Length of Day
8h 22m
Waning Gibbous, 87% of the Moon is Illuminated
Dec 2
Waning Gibbous
Dec 6
Last Quarter
Dec 13
New
Dec 20
First Quarter
Dec 28
Full

Hourly Weather History & Observations

Time (CET) Temp. Windchill Dew Point Humidity Pressure Visibility Wind Dir Wind Speed Gust Speed Precip Events Conditions
12:00 AM 24.8 °F - 24.8 °F 100% 29.95 in - Calm Calm - N/A   Clear
1:00 AM 26.6 °F - 24.8 °F 93% 29.92 in 6.2 mi ESE 2.3 mph - N/A   Scattered Clouds
2:00 AM 28.4 °F - 26.6 °F 93% 29.92 in 6.2 mi East 2.3 mph - N/A   Mostly Cloudy
3:00 AM 28.4 °F 24.6 °F 26.6 °F 93% 29.89 in 6.2 mi ESE 3.5 mph - N/A   Mostly Cloudy
4:00 AM 28.4 °F - 26.6 °F 93% 29.89 in 6.2 mi SE 2.3 mph - N/A   Overcast
5:00 AM 28.4 °F - 26.6 °F 93% 29.86 in 6.2 mi Variable 2.3 mph - N/A   Overcast
6:00 AM 30.2 °F 26.7 °F 28.4 °F 93% 29.86 in 6.2 mi SE 3.5 mph - N/A   Overcast
8:00 AM 30.2 °F 26.7 °F 28.4 °F 93% 29.86 in 6.2 mi East 3.5 mph - N/A   Overcast
10:00 AM 32.0 °F - 28.4 °F 87% 29.86 in 6.2 mi Calm Calm - N/A Snow Light Snow
11:00 AM 30.2 °F 23.4 °F 28.4 °F 93% 29.86 in 6.2 mi NW 6.9 mph - N/A   Overcast
12:00 PM 30.2 °F 24.3 °F 28.4 °F 93% 29.83 in 6.2 mi NNW 5.8 mph - N/A   Overcast
1:00 PM 30.2 °F - 28.4 °F 93% 29.83 in 6.2 mi Variable 2.3 mph - N/A   Mostly Cloudy
2:00 PM 30.2 °F - 28.4 °F 93% 29.83 in 6.2 mi Variable 2.3 mph - N/A   Mostly Cloudy
3:00 PM 32.0 °F - 28.4 °F 87% 29.83 in 6.2 mi Calm Calm - N/A   Overcast
4:00 PM 30.2 °F - 28.4 °F 93% 29.83 in 5.0 mi ESE 1.2 mph - N/A   Overcast
5:00 PM 32.0 °F - 28.4 °F 87% 29.83 in 6.2 mi Calm Calm - N/A   Overcast
6:00 PM 30.2 °F - 28.4 °F 93% 29.83 in 6.2 mi Calm Calm - N/A   Overcast
8:00 PM 30.2 °F - 28.4 °F 93% 29.83 in 6.2 mi West 2.3 mph - N/A   Overcast
10:00 PM 32.0 °F 28.7 °F 28.4 °F 87% 29.83 in 6.2 mi WSW 3.5 mph - N/A   Overcast
11:00 PM 32.0 °F - 28.4 °F 87% 29.83 in 6.2 mi Calm Calm - N/A   Overcast